User: anonymous   Login
Location: Arcueil
(48.7999°N, 2.3326°E)
Time: 16:31:17
(UTC+00:00)
Language:

AO-7 - Orbit

View from above orbital plane
View from above orbital plane
View from above satellite
View from above satellite

Ground track
Ground track

The orbit data is extracted from the following two-line orbital elements,

1 07530U 74089B   24169.94435493 -.00000028  00000-0  11553-3 0  9995
2 07530 101.9773 164.5995 0012634  83.0065 332.7417 12.53676240269136
Epoch (UTC): 17 June 2024 22:39:52
Eccentricity: 0.0012634
inclination: 101.9773°
perigee height: 1439 km
apogee height: 1459 km
right ascension of ascending node: 164.5995°
argument of perigee: 83.0065°
revolutions per day: 12.53676240
mean anomaly at epoch: 332.7417°
orbit number at epoch: 26913

The dashed part of the orbit path shows where the satellite is in the earth's shadow,  

DLR